User: anonymous   Login
Location: Unspecified
(0.0000°N, 0.0000°E)
Time: 00:55:40
(UTC+00:00)
Language:

STARLINK-5389 - Orbit

View from above orbital plane
View from above orbital plane
View from above satellite
View from above satellite

Ground track
Ground track

The orbit is defined by the following mean orbital elements,

1 54835U          26145.47556459 +.00000000 +00000-0 +57934-6 0 00005
2 54835  43.0029  62.6863 0000803 259.8095 100.2666 15.27574480    09
Epoch (UTC): 25 May 2026 11:24:48
Eccentricity: 0.0000803
inclination: 43.0029°
perigee height: 483 km
apogee height: 484 km
right ascension of ascending node: 62.6863°
argument of perigee: 259.8095°
revolutions per day: 15.27574480
mean anomaly at epoch: 100.2666°

The dashed part of the orbit path shows where the satellite is in the earth's shadow,  

DLR